Weather in Frunze

Russia / Republic of Crimea     45°18′01″N   34°42′28″E
temp.,
°C
wind,
m/s
gust,
m/s
humid.,
%
clouds,
%
prec.,
mm/h
press.,
hPa
HPBL,
m
28 february, sun
sun2800:00+5nnw4792100 4.1 1018498
03:00+5nw4782100 4.9 1019677
06:00+4nw5884100 0.1 1019606
09:00+4nw588499 0.3 1020712
12:00+5nw577999 0.4 1021789
15:00+6nw577299 0.9 1021939
18:00+4wnw4778100 0.5 1022782
21:00+3wnw368692 0.6 1023391
1 march, mon
mon100:00+2wnw468997 0.1 1024370
03:00+1w349198 0.2 1024149
06:00+1w229096 0.0 102546
09:00+1wnw229691 0.3 1026148
12:00+2wnw2289100 0.2 1027323
15:00+5nw236274 0.2 1027997
18:00+3ne238091 0.1 1028539
21:00+1e118892 0.3 102975
2 march, tue
tue200:00+1wsw128980 0.0 103022
03:00+1w228189 0.0 103041
06:000wnw228332 0.0 103027
09:00+2wnw347418 0.0 1030281
12:00+5w45594 0.0 10301073
15:00+6w685616 0.0 10281138
18:00+4wsw7106628 0.0 1026787
21:00+3wsw6137964 0.0 1026576
3 march, wed
wed300:00+3wsw8158125 0.0 1025494
03:00+5w6128461 0.0 1024484
06:00+2w479556 0.0 1024192
09:00+4w478838 0.0 1025337
12:00+8wnw576850 0.0 10251021
15:00+8nw576075 0.1 10251339
18:00+7nnw4762100 0.1 1026421
21:00+5n246998 0.1 1027147
4 march, thu
thu400:00+3wnw006647 0.0 102822
03:00+3sw127123 0.0 102822
06:00+2ssw12740 0.0 102722
09:00+5s226513 0.0 1027112
12:00+8sw24537 0.0 10261254
15:00+11ssw44474 0.0 10251564
18:00+8s45641 0.0 1023265
21:00+5ssw33792 0.0 102368